Simultaneous Nadir Overpasses (SNOs) Predictions

Prediction of SNOs between GOES-16 and NOAA-20 Satellite Orbit:

Table of predicted SNOs for the next 14.0 days since TLE Epoch: 6/10/2018
Index Date Time (GOES-16) GOES-16 Lat,Lon NOAA-20 Lat,Lon Distance(km) Time Diff (sec)
1 06/11/2018 06:16:18 -0.00, -75.19 -0.41, -73.37 207.95 80
2 06/12/2018 18:38:13 0.00, -75.20 -0.77, -78.67 395.71 80
3 06/13/2018 18:22:07 0.01, -75.20 0.23, -74.13 121.03 80
4 06/15/2018 06:43:55 -0.01, -75.20 0.92, -79.40 479.33 80
5 06/16/2018 06:22:29 -0.01, -75.20 -0.08, -74.87 37.47 80
6 06/18/2018 18:25:39 0.01, -75.21 -0.09, -75.63 48.21 80
7 06/19/2018 18:09:34 0.01, -75.22 0.91, -71.10 469.56 80
8 06/21/2018 06:31:21 -0.01, -75.24 0.24, -76.37 129.01 80
9 06/22/2018 06:09:55 -0.01, -75.25 -0.77, -71.84 389.08 80
10 06/23/2018 18:31:51 0.01, -75.27 -0.41, -77.14 212.40 80
11 06/24/2018 18:15:45 0.01, -75.29 0.60, -72.60 306.08 80




NCC Satellite Simultaneous Nadir Overpasses (SNOs) Prediction Service
